This is the latest recevied weather packets stored in our database for station/object WI0K. If no packets are shown the sender has not sent any weather packets the latest 10 day(s).
| Time | Temp. | Humidity | Pressure | Rain* | Wind** | Luminosity | Snow |
|---|---|---|---|---|---|---|---|
| 1788086172 | 17.78° C | 66% | 1018.5 hPa | 0 mm | - | 0 W/m² | - |
| 1788085871 | 17.78° C | 66% | 831.5 hPa | 0 mm | - | 0 W/m² | - |
| 1788085570 | 17.78° C | 65% | 1018.6 hPa | 0 mm | - | 0 W/m² | - |
| 1788085270 | 18.33° C | 67% | 1018.6 hPa | 0 mm | - | 0 W/m² | - |
| 1788084969 | 18.33° C | 64% | 1018.5 hPa | 0 mm | - | 0 W/m² | - |
| 1788084668 | 18.33° C | 63% | 1018.4 hPa | 0 mm | - | 0 W/m² | - |
| 1788084368 | 18.33° C | 61% | 1018.4 hPa | 0 mm | - | 0 W/m² | - |
| 1788084067 | 18.33° C | 62% | 1018.3 hPa | 0 mm | - | 0 W/m² | - |
| 1788083766 | 18.33° C | 62% | 1018.2 hPa | 0 mm | - | 0 W/m² | - |
| 1788083466 | 18.33° C | 61% | 1018.4 hPa | 0 mm | - | 0 W/m² | - |
| 1788083165 | 18.33° C | 61% | 1018.5 hPa | 0 mm | - | 0 W/m² | - |
| 1788082864 | 18.33° C | 61% | 1018.4 hPa | 0 mm | - | 0 W/m² | - |
| 1788082564 | 18.33° C | 61% | 1018.4 hPa | 0 mm | - | 0 W/m² | - |
| 1788082263 | 18.33° C | 62% | 1018.4 hPa | 0 mm | - | 0 W/m² | - |
| 1788081962 | 18.33° C | 62% | 1018.4 hPa | 0 mm | - | 0 W/m² | - |
| 1788081661 | 18.33° C | 63% | 1018.3 hPa | 0 mm | - | 0 W/m² | - |
| 1788081361 | 18.33° C | 63% | 1018.5 hPa | 0 mm | - | 0 W/m² | - |
| 1788081060 | 18.33° C | 62% | 1018.6 hPa | 0 mm | - | 0 W/m² | - |
| 1788080759 | 18.33° C | 62% | 1018.6 hPa | 0 mm | - | 0 W/m² | - |
| 1788080459 | 18.89° C | 61% | 1018.6 hPa | 0 mm | - | 0 W/m² | - |
| 1788080158 | 18.89° C | 60% | 1018.4 hPa | 0 mm | - | 0 W/m² | - |
| 1788079857 | 18.89° C | 58% | 1018.3 hPa | 0 mm | - | 0 W/m² | - |
| 1788079557 | 18.89° C | 59% | 1018.2 hPa | 0 mm | - | 0 W/m² | - |
| 1788079256 | 18.89° C | 60% | 1018.3 hPa | 0 mm | - | 0 W/m² | - |
| 1788078955 | 18.89° C | 59% | 1018.4 hPa | 0 mm | - | 0 W/m² | - |
* Rain latest hour (hover to see other rain measurements)
** Current wind speed in m/s (hover to see current wind gust speed)